Regional Weather Roundup
Issued by NWS

Home | Current Version | Previous Version | Text Only | Print | Product List | Glossary On
Versions: 1 2 3 4 5 6 7 8 9 10 11 12 13 14 15 16 17 18 19 20 21 22 23 24 25 26 27 28 29 30 31 32 33 34 35 36 37 38 39 40 41 42 43 44 45 46 47 48 49 50
000
ASUS43 KMKX 270200
RWRWI

WISCONSIN REGIONAL WEATHER ROUNDUP
NATIONAL WEATHER SERVICE MILWAUKEE/SULLIVAN WI
900 PM CDT WED APR 26 2017

NOTE: "FAIR" INDICATES FEW OR NO CLOUDS BELOW 12,000 FEET WITH NO
SIGNIFICANT WEATHER AND/OR OBSTRUCTIONS TO VISIBILITY.

WIZ001-002-006>008-014>016-023>028-270300-
NORTHWEST WISCONSIN

CITY           SKY/WX    TMP DP  RH WIND       PRES   REMARKS
SUPERIOR ARPT  CLOUDY    32  28  85 CALM      29.63R
ASHLAND        LGT SNOW  30  29  96 NE15      29.60S FOG     WCI  19
HAYWARD        LGT SNOW  32  29  88 NE9       29.56R FOG     WCI  24
SIREN          CLOUDY    34  32  92 NE8       29.58R WCI  27
CUMBERLAND     CLOUDY    32  32 100 N7        29.55R WCI  26
RICE LAKE      CLOUDY    36  32  87 N9        29.57R WCI  29
CHETEK         CLOUDY    36  32  86 N8        29.55R WCI  30
LADYSMITH      CLOUDY    35  32  88 N8        29.55S WCI  29
EAU CLAIRE     CLOUDY    38  34  85 NW9       29.53S WCI  31
MENOMONIE      CLOUDY    38  35  88 NW8       29.55R WCI  32
NEW RICHMOND   CLOUDY    36  33  87 N10       29.57R WCI  29
OSCEOLA        CLOUDY    37  32  83 N7        29.60R WCI  31
$$

WIZ003>005-009-010-017-018-270300-
NORTH CENTRAL WISCONSIN

CITY           SKY/WX    TMP DP  RH WIND       PRES   REMARKS
MANITOWISH WTR CLOUDY    32  32 100 N7        29.52R WCI  25
ARBOR VITAE    CLOUDY    34  33  96 N10       29.49R FOG     WCI  26
WOODRUFF       CLOUDY    34  33  96 N10       29.49R FOG     WCI  26
RHINELANDER    CLOUDY    37  37 100 NW8       29.50R WCI  31
EAGLE RIVER    CLOUDY    34  33  99 N8        29.50R WCI  27
LAND O LAKES   CLOUDY    33  32  99 NW5       29.52R FOG     WCI  28
PHILLIPS       CLOUDY    32  32  99 N6        29.52R WCI  27
TOMAHAWK       CLOUDY    36  34  94 NW5       29.51R WCI  32
MEDFORD        CLOUDY    37  36  96 N9        29.49S WCI  30
MERRILL        CLOUDY    39  39 100 N5        29.51R
$$

WIZ029-030-035-036-043>047-270300-
CENTRAL WISCONSIN

CITY           SKY/WX    TMP DP  RH WIND       PRES   REMARKS
WAUSAU         CLOUDY    43  41  93 W9        29.48R
MOSINEE        CLOUDY    43  39  87 W8        29.50R
MARSHFIELD     CLOUDY    40  37  89 NW10      29.49R WCI  33
STEVENS POINT  CLOUDY    42  42  99 W7        29.50R
WAUPACA        CLOUDY    49  47  92 W9        29.48S FOG
WAUTOMA        CLOUDY    46  44  93 NW10      29.48S
WISC RAPIDS    CLOUDY    44  42  93 NW7       29.50S
CAMP DOUGLAS   NOT AVBL
$$

WIZ011>013-019>022-031-037>040-048>050-270300-
NORTHEAST WISCONSIN

CITY           SKY/WX    TMP DP  RH WIND       PRES   REMARKS
ANTIGO         CLOUDY    42  42 100 W8        29.47R
SHAWANO        CLOUDY    54  50  86 W8        29.47R
OCONTO         CLOUDY    60  55  85 W13       29.43R
STURGEON BAY   CLOUDY    61  56  83 MISG      29.44R
GREEN BAY      CLOUDY    58  55  90 W12       29.45R
MANITOWOC      NOT AVBL
APPLETON       CLOUDY    52  48  87 W15       29.45R
CLINTONVILLE   CLOUDY    50  46  87 W9        29.47R
OSHKOSH        CLOUDY    52  48  86 W10       29.44F
$$

WIZ032>034-041-042-053>061-270300-
SOUTHWEST WISCONSIN

CITY           SKY/WX    TMP DP  RH WIND       PRES   REMARKS
LA CROSSE      CLOUDY    44  39  82 N12       29.53R
SPARTA         CLOUDY    41  40  98 W7        29.52F FOG
VIROQUA        CLOUDY    41  40  97 W7        29.51S
BOSCOBEL       CLOUDY    47  41  80 W7        29.51S
PRAIRIE DU CHI CLOUDY    45  40  81 W13       29.52S
PLATTEVILLE    CLOUDY    47  46  97 NW8       29.50R
$$

WIZ056-057-062-063-064-067-068-270300-
SOUTH CENTRAL WISCONSIN

CITY           SKY/WX    TMP DP  RH WIND       PRES   REMARKS
REEDSBURG      CLOUDY    46  46 100 W6        29.49S
BARABOO/DELLS  CLOUDY    47  46  94 W7        29.47F FOG
LONE ROCK      CLOUDY    48  45  87 NW10      29.49S
MINERAL POINT  CLOUDY    46  46 100 W6        29.49R
MADISON        CLOUDY    52  48  86 VRB7      29.46S
MIDDLETON      CLOUDY    51  49  92 W7        29.48R
WATERTOWN      CLOUDY    55  55 100 W7        29.46R
MONROE         CLOUDY    50  46  87 W7        29.47F
JANESVILLE     CLOUDY    54  54 100 W6        29.47R FOG
$$

WIZ051-052-058>065-066-070>072-270300-
SOUTHEAST WISCONSIN

CITY           SKY/WX    TMP DP  RH WIND       PRES   REMARKS
MILWAUKEE      CLOUDY    62  56  80 SW6       29.44F
WAUKESHA       DRIZZLE   55  54  94 W7        29.46F
MILWAUKEE/TIMM CLOUDY    61  52  72 SW5       29.44F
RACINE         CLOUDY    61  54  77 SW5       29.46S
KENOSHA        CLOUDY    61  54  77 SW6       29.45F
FOND DU LAC    CLOUDY    58  51  78 SW8       29.45S
SHEBOYGAN      CLOUDY    61  56  83 SW6       29.43F
WEST BEND      CLOUDY    59  54  82 W3        29.44F
JUNEAU         CLOUDY    54  51  92 W9        29.47S
$$

LSZ147-162-270300-
LAKE SUPERIOR

STATION/POSITION TIME  TEMP    WIND        PRES    WAVE
                       AIR SEA DIR/SP/G            HT/PER
                 (UTC) (F)     (DEG/KT/KT) (MB)    (FT/S)
DEVILS ISLAND    0100   30      20/ 15/ 16 1003.9R
PORT WING        2340   33      20/ 19/ 21 1002.4R
SAXON HARBOR     0140   32      30/ 18/ 22 1002.4R
$$

LMZ867-665-643>646-270300-
LAKE MICHIGAN

STATION/POSITION TIME  TEMP    WIND        PRES    WAVE
                       AIR SEA DIR/SP/G            HT/PER
                 (UTC) (F)     (DEG/KT/KT) (MB)    (FT/S)
CHAMBERS ISLAND  0140   61     180/  3/  7  995.9R
N MID LAKE BUOY  0050   42 37  170/  8/ 10  997.3F   2/ 5
NORTHPORT PIER   0140   48     150/  5/ 14  996.6R
SISTER BAY       0021   59     180/ 12/ 14   N/A
KEWAUNEE LAKESHO 0130   60     210/  8/ 10  996.8R
SHEBOYGAN LAKESH 0100   64     220/ 12/ 13  997.2R
PORT WASHINGTON  0130   64     240/  4/  9  998.0F
MILWAUKEE LAKESH 0130   63     250/  6/  7   N/A
S MID LAKE BUOY  0050   50 42  150/  4/  6  997.6F   1
KENOSHA   LAKESH 0100   64     270/  7/ 15  997.6
$$

TC  - TEMPERATURE IN CELSIUS
VSB - VISIBILITY IN STATUTE MILES
WCI - WIND CHILL INDEX
HX  - HEAT INDEX





USA.gov is the U.S. government's official web portal to all federal, state and local government web resources and services.